Ketchikan, AK

4:18 PM AKST on December 12, 2018 (GMT -0900)
Ketchikan International

Weather History for PAKT - October, 2018

Change the Weather History Date:

Sunday, October 21, 2018

  Actual Average Record
Temperature  
Mean Temperature 47 °F -  
Max Temperature 52 °F 50 °F 62 °F (1957)
Min Temperature 43 °F 39 °F 28 °F (2004)
Degree Days  
Heating Degree Days 18    
Moisture  
Dew Point 44 °F    
Average Humidity 92    
Maximum Humidity 100    
Minimum Humidity 71    
Precipitation  
Precipitation 0.00 in - - ()
Sea Level Pressure  
Sea Level Pressure 30.09 in    
Wind  
Wind Speed 3 mph (SSE)    
Max Wind Speed 8 mph    
Max Gust Speed -    
Visibility 4 miles    
Events Fog    
Averages and records for this station are not official NWS values.
T = Trace of Precipitation, MM = Missing Value Source: NWS Daily Summary

Daily Weather History Graph

Daily Weather History Graph

Search for Another Location

Airport or City:

Astronomy

Oct. 21, 2018 Rise Set
Actual Time 7:29 AM AKDT 5:32 PM AKDT
Civil Twilight 6:51 AM AKDT 6:09 PM AKDT
Nautical Twilight 6:09 AM AKDT 6:52 PM AKDT
Astronomical Twilight 5:27 AM AKDT 7:34 PM AKDT
Moon 5:11 PM AKDT (10/21) 3:31 AM AKDT (10/21)
Length of Visible Light 11h 17m
Length of Day
10h 02m
Waxing Gibbous, 91% of the Moon is Illuminated
Oct 21
Waxing Gibbous
Oct 24
Full
Oct 31
Last Quarter
Nov 7
New
Nov 15
First Quarter

Hourly Weather History & Observations

Time (AKDT) Temp. Windchill Dew Point Humidity Pressure Visibility Wind Dir Wind Speed Gust Speed Precip Events Conditions
12:02 AM 48.0 °F - 46.9 °F 96% 30.20 in 3.0 mi East 6.9 mph - N/A   Overcast
12:53 AM 48.0 °F - 46.0 °F 93% 30.21 in 9.0 mi Calm Calm - N/A   Overcast
1:10 AM 46.9 °F - 46.0 °F 97% 30.20 in 1.8 mi Calm Calm - N/A   Overcast
1:23 AM 46.9 °F - 45.0 °F 93% 30.19 in 0.5 mi SW 3.5 mph - N/A Fog Fog
1:42 AM 46.0 °F - 45.0 °F 96% 30.18 in 0.2 mi Calm Calm - N/A Fog Fog
1:53 AM 45.0 °F 43.5 °F 44.1 °F 97% 30.18 in 0.2 mi SSW 3.5 mph - N/A Fog Fog
1:58 AM 45.0 °F 43.5 °F 44.1 °F 97% 30.18 in 1.0 mi SW 3.5 mph - N/A   Mist
2:02 AM 45.0 °F - 43.0 °F 93% 30.18 in 4.0 mi Calm Calm - N/A   Mostly Cloudy
2:13 AM 45.0 °F - 43.0 °F 93% 30.18 in 1.8 mi Calm Calm - N/A   Mostly Cloudy
2:19 AM 44.1 °F - 43.0 °F 96% 30.18 in 0.2 mi Calm Calm - N/A Fog Fog
2:29 AM 44.6 °F - 42.8 °F 93% 30.17 in 0.2 mi Calm Calm - N/A Fog Fog
2:43 AM 45.0 °F - 43.0 °F 93% 30.18 in 0.5 mi Calm Calm - N/A Fog Fog
2:53 AM 45.0 °F - 44.1 °F 97% 30.18 in 0.2 mi Calm Calm - N/A Fog Fog
3:08 AM 46.0 °F 44.8 °F 45.0 °F 96% 30.17 in 0.2 mi South 3.5 mph - N/A Fog Fog
3:18 AM 46.0 °F - 44.1 °F 93% 30.17 in 0.2 mi Calm Calm - N/A Fog Fog
3:53 AM 46.0 °F - 45.0 °F 96% 30.17 in 0.2 mi Calm Calm - N/A Fog Fog
4:20 AM 44.1 °F 42.5 °F 43.0 °F 96% 30.15 in 0.5 mi South 3.5 mph - N/A Fog Fog
4:53 AM 43.0 °F 41.3 °F 42.1 °F 97% 30.15 in 0.5 mi South 3.5 mph - N/A Fog Fog
4:58 AM 43.0 °F 40.3 °F 42.1 °F 97% 30.14 in 2.5 mi South 4.6 mph - N/A   Overcast
5:05 AM 43.0 °F 40.3 °F 42.1 °F 97% 30.14 in 4.0 mi SSE 4.6 mph - N/A   Overcast
5:07 AM 43.0 °F 40.3 °F 42.1 °F 97% 30.14 in 1.8 mi SSE 4.6 mph - N/A   Overcast
5:20 AM 43.0 °F 39.5 °F 42.1 °F 97% 30.13 in 0.8 mi SSE 5.8 mph - N/A   Mist
5:32 AM 44.1 °F 40.8 °F 42.1 °F 93% 30.13 in 0.2 mi SSE 5.8 mph - N/A Fog Fog
5:53 AM 44.1 °F 41.5 °F 43.0 °F 96% 30.13 in 0.2 mi ESE 4.6 mph - N/A Fog Fog
6:04 AM 44.1 °F 42.5 °F 43.0 °F 96% 30.12 in 0.2 mi SE 3.5 mph - N/A Fog Fog
6:48 AM 44.6 °F 42.2 °F 44.6 °F 100% 30.10 in 0.5 mi SE 4.6 mph - N/A Fog Fog
6:53 AM 45.0 °F 42.6 °F 44.1 °F 97% 30.10 in 0.8 mi ESE 4.6 mph - N/A   Mist
7:27 AM 45.0 °F 42.6 °F 44.1 °F 97% 30.09 in 3.0 mi East 4.6 mph - N/A   Overcast
7:53 AM 44.1 °F 42.5 °F 43.0 °F 96% 30.09 in 3.0 mi SE 3.5 mph - N/A   Overcast
8:53 AM 44.1 °F - 44.1 °F 100% 30.07 in 2.0 mi Calm Calm - N/A   Overcast
9:05 AM 44.1 °F - 43.0 °F 96% 30.06 in 0.8 mi Calm Calm - N/A   Overcast
9:53 AM 45.0 °F - 44.1 °F 97% 30.05 in 1.0 mi Calm Calm - N/A   Overcast
10:26 AM 46.0 °F - 45.0 °F 96% 30.05 in 10.0 mi Calm Calm - N/A   Scattered Clouds
10:53 AM 48.0 °F - 44.1 °F 86% 30.04 in 10.0 mi Calm Calm - N/A   Scattered Clouds
11:53 AM 48.9 °F - 45.0 °F 86% 30.03 in 10.0 mi ESE 3.5 mph - N/A   Partly Cloudy
12:53 PM 50.0 °F - 45.0 °F 83% 30.01 in 10.0 mi ESE 8.1 mph - N/A   Clear
1:53 PM 51.8 °F - 44.6 °F 76% 29.99 in 10.0 mi SE 8.1 mph - N/A   Clear
2:53 PM 51.8 °F - 44.6 °F 76% 29.96 in 10.0 mi SE 8.1 mph - N/A   Clear
3:53 PM 51.8 °F - 44.6 °F 76% 29.94 in 10.0 mi ESE 6.9 mph - N/A   Clear
4:53 PM 51.8 °F - 42.8 °F 71% 29.94 in 10.0 mi SE 4.6 mph - N/A   Clear
5:53 PM 48.2 °F - 44.6 °F 87% 29.94 in 10.0 mi South 5.8 mph - N/A   Clear
6:53 PM 48.2 °F - 44.6 °F 87% 29.92 in 10.0 mi SSE 6.9 mph - N/A   Partly Cloudy
7:53 PM 48.2 °F - 44.6 °F 87% 29.94 in 10.0 mi SE 8.1 mph - N/A   Partly Cloudy
8:53 PM 46.9 °F - 44.1 °F 90% 29.92 in 10.0 mi Calm Calm - N/A   Scattered Clouds
9:53 PM 46.9 °F - 44.1 °F 90% 29.90 in 10.0 mi SSE 6.9 mph - N/A   Scattered Clouds
10:53 PM 48.0 °F - 43.0 °F 83% 29.88 in 10.0 mi SE 5.8 mph - N/A   Mostly Cloudy
11:53 PM 50.0 °F - 41.0 °F 71% 29.86 in 10.0 mi SSE 6.9 mph - N/A   Overcast